パンスターズ彗星

C/2015 V3 ( PanSTARRS )

English version
Home page
Updated on December 31, 2016

---------------------------------------------------------------------

・ プロフィール

発見日 2015年11月2日
発見光度 21.8等
発見者 Pan-STARRS 1 telescope (Haleakala)

・ 写真集

・ 軌道要素

Epoch 2015 Dec. 4.0 TT = JDT 2457360.5
T 2015 Nov. 24.87996 TT                                 MPCW
q   4.2356350            (2000.0)            P               Q
z  +0.0012270      Peri.    0.82341     +0.99902373     -0.01704356
 +/-0.0000055      Node     2.34090     +0.03263279     -0.33715776
e   0.9948031      Incl.   86.23079     +0.02977743     +0.94129388
From 78 observations 2015 Nov. 2-2016 Oct. 29, mean residual 0".5.

・ 光度変化

        m1 = -15.5 + 5 logΔ + 50 log r

---------------------------------------------------------------------

軌道要素はM.P.E.C. 2016-V116に掲載されたものです。
光度グラフはComet for Windowsで作成したものです。

---------------------------------------------------------------------

Copyright(C) Seiichi Yoshida (comet@aerith.net). All rights reserved.